This demonstration page uses our WeatherBlox Daily Observations layout. Learn more.

Left ArrowRight Arrow

38.83388, -104.82136

Hourly Observations for May 29, 2018

Temp ( °F °C ) Dew Point ( °F °C ) Humidity (%) Winds ( mph kmh ) Pressure ( in mb ) Visibility ( mi km ) Precip ( " mm )
12:58 am 00:58 Mostly Clear 54 12.3 42 5.5 63 63 NNW 13 20 29.57 1001 10 16 0.00 0.00
1:06 am 01:06 Mostly Clear with Thunderstorms 55 13 37 3 51 51 NW 13 20 29.56 1001 10 16 0.00 0.00
1:21 am 01:21 Mostly Cloudy 55 13 37 3 51 51 NW 17 28 29.53 1000 10 16 0.00 0.00
1:50 am 01:50 Mostly Cloudy with Light Rain 55 13 37 3 51 51 NW 12 19 29.54 1000 10 16 0.00 0.00
1:58 am 01:58 Mostly Cloudy with Light Rain 55 12.8 40 4.3 57 57 NW 15 24 29.54 1000 10 16 0.00 0.00
2:18 am 02:18 Mostly Cloudy 54 12 39 4 58 58 NNW 12 19 29.55 1001 10 16 0.00 0.00
2:44 am 02:44 Mostly Cloudy with Light Showers 54 12 37 3 54 54 W 5 7 29.55 1001 10 16 0.00 0.00
2:58 am 02:58 Mostly Cloudy with Showers 52 11.3 42 5.5 68 68 WSW 5 7 29.56 1001 10 16 0.02 0.51
3:19 am 03:19 Partly Cloudy 52 11 41 5 67 67 Calm 29.54 1000 10 16 0.00 0.00
3:58 am 03:58 Clear 52 11.1 39 3.9 61 61 Calm 29.54 1001 10 16 0.00 0.00
4:58 am 04:58 Partly Cloudy 49 9.3 40 4.3 71 71 SSW 9 15 29.56 1001 10 16 0.00 0.00
5:58 am 05:58 Mostly Cloudy 48 8.9 41 5.2 78 78 Calm 29.56 1001 10 16 0.00 0.00
6:58 am 06:58 Mostly Cloudy 51 10.5 44 6.7 78 78 Calm 29.57 1001 10 16 0.00 0.00
7:48 am 07:48 Mostly Cloudy 50 10 46 8 88 88 Calm 29.57 1001 10 16 0.00 0.00
7:58 am 07:58 Mostly Cloudy 50 10.1 46 8 87 87 Calm 29.57 1001 10 16 0.00 0.00
8:18 am 08:18 Mostly Cloudy 50 10 46 8 88 88 S 8 13 29.56 1001 10 16 0.00 0.00
8:33 am 08:33 Partly Cloudy 54 12 46 8 77 77 SSE 7 11 29.52 1000 10 16 0.00 0.00
8:58 am 08:58 Sunny 55 13 49 9.3 78 78 S 14 22 29.50 999 10 16 0.00 0.00
9:58 am 09:58 Partly Cloudy 61 15.9 50 9.9 68 68 ESE 10 17 29.48 998 10 16 0.00 0.00
10:03 am 10:03 Mostly Cloudy 63 17 50 10 64 64 ESE 12 19 29.47 998 10 16 0.00 0.00
10:38 am 10:38 Mostly Cloudy 59 15 46 8 63 63 SSE 6 9 29.52 1000 10 16 0.00 0.00
10:58 am 10:58 Mostly Cloudy 62 16.7 47 8.6 59 59 E 5 7 29.51 999 10 16 0.00 0.00
11:16 am 11:16 Mostly Cloudy with Light Rain 61 16 46 8 59 59 SE 9 15 29.50 999 10 16 0.00 0.00
11:32 am 11:32 Mostly Cloudy 63 17 46 8 56 56 SE 9 15 29.50 999 10 16 0.00 0.00
11:46 am 11:46 Mostly Cloudy with Light Rain 61 16 48 9 63 63 SSE 6 9 29.50 999 10 16 0.00 0.00
11:58 am 11:58 Mostly Cloudy with Light Showers 61 16.3 49 9.6 65 65 ESE 7 11 29.49 999 10 16 0.00 0.00
12:02 pm 12:02 Mostly Cloudy 64 18 48 9 56 56 ESE 8 13 29.47 998 10 16 0.00 0.00
12:58 pm 12:58 Mostly Cloudy 67 19.7 42 5.3 39 39 ESE 6 9 29.45 997 10 16 0.00 0.00
1:58 pm 13:58 Mostly Cloudy 70 21 38 3.1 31 31 SE 9 15 29.43 997 10 16 0.00 0.00
2:58 pm 14:58 Mostly Cloudy 69 20.3 35 1.6 29 29 Calm 29.44 997 10 16 0.00 0.00
3:58 pm 15:58 Mostly Cloudy 67 19.6 36 2.4 32 32 E 5 7 29.45 997 10 16 0.00 0.00
4:58 pm 16:58 Mostly Cloudy 68 20.2 35 1.6 29 29 N 3 6 29.47 998 10 16 0.00 0.00
5:58 pm 17:58 Mostly Cloudy 68 19.8 35 1.8 30 30 Calm 29.48 998 10 16 0.00 0.00
6:58 pm 18:58 Mostly Cloudy 68 19.9 36 2 31 31 N 9 15 29.48 998 10 16 0.00 0.00
7:58 pm 19:58 Mostly Cloudy 66 18.9 36 2.2 33 33 NW 9 15 29.50 999 10 16 0.00 0.00
8:58 pm 20:58 Mostly Clear 62 16.4 41 5.2 48 48 NW 6 9 29.53 1000 10 16 0.00 0.00
9:58 pm 21:58 Partly Cloudy 60 15.7 43 6.3 54 54 NW 10 17 29.54 1000 10 16 0.00 0.00
10:58 pm 22:58 Clear 60 15.4 43 5.9 53 53 NW 8 13 29.54 1000 10 16 0.00 0.00
11:58 pm 23:58 Clear 59 15.2 39 4.1 48 48 WNW 7 11 29.54 1000 10 16 0.00 0.00

Powered by AerisWeather